This demonstration page uses our WeatherBlox Daily Observations layout. Learn more.

Left ArrowRight Arrow

39.01783, -85.05884

Hourly Observations for October 5, 2020

Temp ( °F °C ) Dew Point ( °F °C ) Humidity (%) Winds ( mph kmh ) Pressure ( in mb ) Visibility ( mi km ) Precip ( " mm )
12:52 am 00:52 Clear 42 5.6 39 3.9 89 89 WNW 6 9 30.23 1024 10 16.0934 0 0
1:52 am 01:52 Clear 45 7.2 41 5 86 86 WNW 5 7 30.22 1024 10 16.0934 0 0
2:52 am 02:52 Clear 41 5 38 3.3 89 89 Calm 30.23 1024 10 16.0934 0 0
3:52 am 03:52 Clear 41 5 38 3.3 89 89 Calm 30.24 1024 10 16.0934 0 0
4:52 am 04:52 Clear 38 3.3 37 2.8 97 97 WSW 3 6 30.25 1024 10 16.0934 0 0
5:52 am 05:52 Clear 37 2.8 35 1.7 93 93 WNW 3 6 30.27 1025 10 16.0934 0.001 0.001
6:52 am 06:52 Clear 38 3.3 36 2.2 93 93 Calm 30.28 1025 10 16.0934 0 0
7:52 am 07:52 Sunny 39 3.9 36 2.2 89 89 NNW 6 9 30.28 1025 10 16.0934 0 0
8:52 am 08:52 Sunny 43 6.1 39 3.9 86 86 NNE 5 7 30.29 1026 10 16.0934 0 0
9:52 am 09:52 Sunny 47 8.3 41 5 80 80 Calm 30.3 1026 10 16.0934 0 0
10:52 am 10:52 Sunny 51 10.6 44 6.7 77 77 Calm 30.31 1026 10 16.0934 0 0
11:52 am 11:52 Partly Cloudy 55 12.8 41 5 59 59 Calm 30.3 1026 10 16.0934 0 0
12:52 pm 12:52 Mostly Sunny 57 13.9 40 4.4 53 53 VRB 3 6 30.28 1025 10 16.0934 0 0
1:52 pm 13:52 Mostly Sunny 59 15 39 3.9 48 48 S 7 11 30.26 1025 10 16.0934 0 0
2:52 pm 14:52 Mostly Sunny 61 16.1 38 3.3 43 43 S 8 13 30.23 1024 10 16.0934 0 0
3:52 pm 15:52 Sunny 62 16.7 37 2.8 40 40 VRB 3 6 30.2 1023 10 16.0934 0 0
4:52 pm 16:52 Sunny 62 16.7 38 3.3 41 41 SW 3 6 30.18 1022 10 16.0934 0 0
5:52 pm 17:52 Sunny 61 16.1 38 3.3 43 43 SSW 6 9 30.16 1021 10 16.0934 0 0
6:52 pm 18:52 Mostly Sunny 59 15 38 3.3 46 46 SSW 3 6 30.15 1021 10 16.0934 0 0
7:52 pm 19:52 Clear 54 12.2 39 3.9 57 57 S 3 6 30.16 1021 10 16.0934 0 0
8:52 pm 20:52 Clear 52 11.1 40 4.4 64 64 SSE 3 6 30.15 1021 10 16.0934 0 0
9:52 pm 21:52 Clear 51 10.6 39 3.9 64 64 S 5 7 30.14 1021 10 16.0934 0 0
10:52 pm 22:52 Clear 49 9.4 39 3.9 69 69 S 5 7 30.14 1021 10 16.0934 0 0
11:52 pm 23:52 Clear 48 8.9 39 3.9 71 71 S 6 9 30.14 1021 10 16.0934 0 0

Powered by AerisWeather